Regional Weather Roundup
Issued by NWS

Home | Current Version | Previous Version | Graphics & Text | Print | Product List | Glossary On
Versions: 1 2 3 4 5 6 7 8 9 10 11 12 13 14 15 16 17 18 19 20 21 22 23 24 25 26 27 28 29 30 31 32 33 34 35 36 37 38 39 40 41 42 43 44 45 46 47 48 49 50
000
ASUS43 KLSX 301659
RWRMO

WEATHER SUMMARY FOR MISSOURI
NATIONAL WEATHER SERVICE SPRINGFIELD MO
1200 PM CDT MON MAR 30 2015

NOTE: "FAIR" INDICATES FEW OR NO CLOUDS BELOW 12,000 FEET WITH NO
       SIGNIFICANT WEATHER AND/OR OBSTRUCTIONS TO VISIBILITY.
       CURRENT SKY AND/OR WEATHER CONDITIONS ARE NOT AVAILABLE FOR
       CHILLICOTHE AND FARMINGTON.

MOZ001>031-035>038-043-044-053-054-301800-
...NORTHERN AND WESTERN MISSOURI...

CITY           SKY/WX    TMP DP  RH WIND       PRES   REMARKS
KANSAS CTY INT MOSUNNY   64  32  30 SW14      30.14F
KANSAS C DTWN  SUNNY     67  28  23 SW13      30.14F
LEE`S SUMMIT   SUNNY     64  31  28 S9        30.16S
CHILLICOTHE      N/A     65  31  28 S13       30.13F
KIRKSVILLE     SUNNY     65  28  24 SW16G22   30.12F

$$
MOZ066>068-077>081-088>096-101>105-301800-
...SOUTHWEST MISSOURI...

CITY           SKY/WX    TMP DP  RH WIND       PRES   REMARKS
SPRINGFIELD    SUNNY     62  29  28 SE10      30.20F
JOPLIN         SUNNY     64  33  31 SE13      30.20F

$$
MOZ032>034-039>042-045>050-055>058-069>072-301800-
...CENTRAL MISSOURI...

CITY           SKY/WX    TMP DP  RH WIND       PRES   REMARKS
COLUMBIA       SUNNY     63  30  28 SW7       30.18F
JEFFERSON CITY SUNNY     63  30  28 S6        30.18F
ROLLA          SUNNY     62  23  22 NW3       30.18F
SEDALIA        SUNNY     66  27  23 S8        30.17F
WHITEMAN AFB   SUNNY     64  33  31 S8        30.15F
OSAGE BEACH    SUNNY     63  30  29 CALM      30.20F

$$
MOZ051-052-059>065-301800-
...EAST CENTRAL MISSOURI...

CITY           SKY/WX    TMP DP  RH WIND       PRES   REMARKS
ST LOUIS INTL  MOSUNNY   65  27  23 W7        30.19F
SPIRIT OF STL  MOSUNNY   62  29  28 W7        30.18F
ST CHARLES     SUNNY     62  27  26 W8G16     30.18F

$$
MOZ072>076-082>087-097>100-106>115-301800-
...SOUTH CENTRAL AND SOUTHEAST MISSOURI...

CITY           SKY/WX    TMP DP  RH WIND       PRES   REMARKS
CAPE GIRARDEAU PTSUNNY   60  32  34 E6        30.22F
FARMINGTON     SUNNY     57  28  33 CALM      30.24F
POPLAR BLUFF   SUNNY     59  39  47 SE7       30.22F
WEST PLAINS    SUNNY     61  29  29 SW6       30.23S

$$



USA.gov is the U.S. government's official web portal to all federal, state and local government web resources and services.